Weather History for Pueblo, CO

Change the Weather History Date:

Wednesday, November 21, 2012

  Actual Average Record
Temperature  
Mean Temperature 49 °F 37 °F  
Max Temperature 74 °F 53 °F 78 °F (1974)
Min Temperature 24 °F 20 °F -1 °F (1906)
Degree Days  
Heating Degree Days 16 28  
Month to date heating degree days 422 496  
Since 1 July heating degree days 912 1006  
Cooling Degree Days 0 0  
Month to date cooling degree days 0 0  
Year to date cooling degree days 1322 897  
Moisture  
Dew Point 10 °F    
Average Humidity 29    
Maximum Humidity 50    
Minimum Humidity 8    
Precipitation  
Precipitation 0.00 in 0.01 in 0.24 in (1963)
Month to date precipitation T 0.33  
Year to date precipitation 4.70 12.05  
Snow  
Snow 0.00 in 0.20 in 2.70 in (1992)
Month to date snowfall T 2.8  
Since 1 July snowfall 1.6 4.4  
Since 1 September snowfall 1.6 4.4  
Snow Depth 0.00 in    
Sea Level Pressure  
Sea Level Pressure 29.93 in    
Wind  
Wind Speed 7 mph (West)    
Max Wind Speed 17 mph    
Max Gust Speed 20 mph    
Visibility 10 miles    
Events      
T = Trace of Precipitation, MM = Missing Value Source: NWS Daily Summary

Daily Weather History Graph

Daily Weather History Graph

Search for Another Location

Airport:

Trip Planner

Search our weather history database for the weather conditions in past years. The results will help you decide how hot, cold, wet, or windy it might be!

Date:

Astronomy

Nov. 21, 2012 Rise Set
Actual Time 6:46 AM MST 4:41 PM MST
Civil Twilight 6:17 AM MST 5:10 PM MST
Nautical Twilight 5:45 AM MST 5:42 PM MST
Astronomical Twilight 5:13 AM MST 6:13 PM MST
Moon 12:54 PM MST (11/21) 12:13 AM MST (11/21)
Length of Visible Light 10h 52m
Length of Day
9h 55m
Waxing Gibbous, 62% of the Moon is Illuminated
Nov 21
Waxing Gibbous
Nov 28
Full
Dec 6
Last Quarter
Dec 13
New
Dec 19
First Quarter

Hourly Weather History & Observations

Time (MST) Temp. Windchill Dew Point Humidity Pressure Visibility Wind Dir Wind Speed Gust Speed Precip Events Conditions
12:53 AM 32.0 °F 24.8 °F 10.9 °F 42% 30.03 in 10.0 mi West 8.1 mph - N/A   Clear
1:53 AM 30.0 °F 26.5 °F 9.0 °F 41% 30.02 in 10.0 mi West 3.5 mph - N/A   Clear
2:53 AM 26.1 °F 21.9 °F 9.0 °F 49% 30.03 in 10.0 mi West 3.5 mph - N/A   Clear
3:53 AM 27.0 °F - 8.1 °F 45% 30.02 in 10.0 mi Calm Calm - N/A   Clear
4:53 AM 28.0 °F 19.3 °F 10.9 °F 49% 30.03 in 10.0 mi West 9.2 mph - N/A   Clear
5:53 AM 32.0 °F 24.8 °F 12.0 °F 44% 30.05 in 10.0 mi West 8.1 mph - N/A   Clear
6:53 AM 27.0 °F 21.6 °F 10.0 °F 49% 30.06 in 10.0 mi NNW 4.6 mph - N/A   Clear
7:53 AM 37.9 °F - 14.0 °F 38% 30.03 in 10.0 mi Calm Calm - N/A   Clear
8:53 AM 51.1 °F - 17.1 °F 26% 30.01 in 10.0 mi West 4.6 mph - N/A   Clear
9:37 AM 62.6 °F - 15.8 °F 16% 30.05 in 2.5 mi West 12.7 mph - N/A   Haze
9:44 AM 64.4 °F - 15.8 °F 15% 30.04 in 10.0 mi West 13.8 mph - N/A   Clear
9:53 AM 64.9 °F - 15.1 °F 15% 29.97 in 10.0 mi West 16.1 mph - N/A   Clear
10:53 AM 70.0 °F - 12.0 °F 11% 29.92 in 10.0 mi West 9.2 mph - N/A   Clear
11:53 AM 72.0 °F - 10.9 °F 10% 29.88 in 10.0 mi WNW 8.1 mph - N/A   Clear
12:53 PM 72.0 °F - 8.1 °F 8% 29.86 in 10.0 mi SW 4.6 mph - N/A   Clear
1:53 PM 73.0 °F - 9.0 °F 8% 29.83 in 10.0 mi Variable 3.5 mph - N/A   Clear
2:53 PM 73.9 °F - 8.1 °F 8% 29.82 in 10.0 mi SSW 9.2 mph - N/A   Clear
3:53 PM 71.1 °F - 10.0 °F 9% 29.82 in 10.0 mi South 9.2 mph - N/A   Clear
4:53 PM 64.9 °F - 8.1 °F 11% 29.84 in 10.0 mi WSW 4.6 mph - N/A   Clear
5:53 PM 59.0 °F - 8.1 °F 13% 29.86 in 10.0 mi SW 5.8 mph - N/A   Clear
6:53 PM 52.0 °F - 5.0 °F 15% 29.90 in 10.0 mi West 12.7 mph - N/A   Clear
7:53 PM 46.9 °F - 3.9 °F 17% 29.89 in 10.0 mi West 12.7 mph - N/A   Clear
8:53 PM 48.0 °F - 6.1 °F 18% 29.86 in 10.0 mi WSW 5.8 mph - N/A   Clear
9:53 PM 50.0 °F - 7.0 °F 18% 29.81 in 10.0 mi West 10.4 mph - N/A   Clear
10:53 PM 48.0 °F - 5.0 °F 17% 29.80 in 10.0 mi WNW 13.8 mph - N/A   Clear
11:53 PM 48.0 °F - 3.9 °F 16% 29.78 in 10.0 mi West 6.9 mph - N/A   Clear